Theta_e
299 295 293 297 297 297 294 293 292 295 298 295 294 295 297 300 300 300 301 302 303 304 306 306 306 308 308 307 307 307 307 308 309 310 311 312 311 312 311 312 310 308 306 303
294 292 298 297 294 293 293 292 291 295 297 292 294 293 296 299 299 301 301 302 303 304 305 305 305 306 307 307 306 306 306 306 307 308 310 310 310 311 310 311 308 307 305 304
294 298 296 294 294 292 293 290 292 291 294 295 292 293 294 300 299 301 302 302 302 302 302 303 304 306 307 306 305 305 305 305 305 306 307 307 308 306 306 307 306 305 304 302
293 296 292 292 291 293 289 295 292 291 289 288 292 286 295 298 298 300 301 302 300 301 301 301 303 303 303 304 306 304 304 304 304 304 304 304 302 302 303 304 304 304 303 302
293 291 290 291 292 293 292 292 291 290 289 288 290 286 294 293 295 297 299 299 300 300 301 301 301 301 301 302 302 303 303 303 303 303 302 303 302 303 304 304 302 302 301 301
293 294 294 294 293 293 293 291 291 289 289 284 291 289 291 294 294 296 298 298 299 300 301 300 299 299 298 300 299 299 299 299 301 301 301 301 301 301 302 302 300 300 300 298
295 296 294 293 291 292 291 289 285 285 285 285 288 287 291 297 297 297 297 298 298 297 296 295 295 294 294 294 295 296 296 295 297 297 299 299 300 300 300 301 299 299 298 297
288 287 291 294 293 294 292 291 285 280 282 286 292 286 293 298 299 297 297 294 295 294 294 293 293 292 292 292 293 293 293 293 294 295 295 297 298 298 298 300 299 299 299 298
289 289 293 291 294 294 290 286 291 285 286 283 288 292 297 296 295 294 294 294 293 293 293 292 293 292 291 291 292 292 291 292 291 292 294 294 295 296 297 298 298 298 299 297
293 287 296 294 292 291 290 292 285 285 278 278 284 286 287 292 291 292 292 291 291 291 291 291 292 292 291 291 292 292 291 291 290 290 291 292 293 294 295 296 297 296 298 297
294 290 290 292 289 291 288 286 287 287 285 280 279 284 294 290 289 289 290 289 288 288 288 288 290 291 291 291 291 291 291 290 290 289 290 291 292 292 292 292 293 295 296 296
295 290 285 288 295 294 293 290 290 283 282 284 283 284 297 293 289 288 287 286 286 286 286 287 288 289 289 289 289 289 290 290 289 289 289 289 290 290 290 291 291 293 293 294
294 288 283 285 289 289 288 290 290 289 285 282 280 283 295 294 292 286 285 284 285 285 285 285 286 287 287 287 288 288 288 288 288 288 288 288 288 288 288 288 290 291 291 291
293 286 285 281 284 288 285 287 288 285 281 282 282 284 288 289 289 284 284 284 284 284 284 283 284 285 286 286 286 285 286 286 286 286 287 286 287 286 285 286 288 289 290 290
288 282 284 285 285 282 282 281 281 280 281 277 279 280 284 287 282 281 282 281 282 283 283 282 283 284 284 285 285 284 285 285 284 284 285 285 286 285 284 285 286 287 288 288
283 280 280 277 281 281 279 280 281 280 280 279 280 279 283 282 282 281 281 280 280 282 282 282 282 283 283 283 283 283 284 284 283 283 284 286 284 282 283 283 284 285 286 288
279 278 276 273 279 276 272 277 279 280 281 280 275 279 281 278 278 279 280 280 280 282 281 282 282 283 283 283 283 282 282 283 282 282 283 283 281 280 281 282 282 283 284 286
278 277 276 272 270 265 277 280 280 278 278 279 279 278 279 279 280 281 283 282 281 282 282 282 283 283 284 284 284 283 282 281 281 281 281 281 279 278 279 279 280 282 283 283
280 277 272 268 269 272 274 278 276 275 275 280 278 278 279 280 280 280 283 284 283 283 283 283 284 283 283 283 283 281 280 280 280 279 279 280 278 276 277 275 277 279 281 282
277 278 273 264 265 264 274 276 278 277 270 278 278 277 277 278 273 277 282 283 283 284 284 283 283 282 281 282 281 279 278 278 278 278 278 278 276 275 275 275 275 277 279 281
270 271 269 270 268 271 277 279 279 268 272 279 279 279 278 276 279 282 283 282 284 284 283 282 281 280 280 280 279 277 277 276 278 277 277 276 275 274 273 273 274 274 276 279
271 268 267 265 264 264 277 276 272 278 280 280 281 281 280 280 281 281 281 282 282 281 281 280 279 278 279 279 277 275 274 276 276 275 274 273 272 272 272 271 271 272 274 275
269 273 271 270 271 278 280 279 282 282 280 281 281 282 281 280 279 280 280 280 279 279 278 278 277 276 276 276 275 273 274 274 273 271 270 269 270 269 269 269 269 270 272 273
275 278 273 273 276 278 280 281 282 282 281 282 282 279 278 277 277 275 275 275 275 275 274 274 272 271 271 272 272 271 271 271 269 267 267 267 267 267 268 268 269 269 271 272
276 276 274 274 277 278 280 281 282 282 281 277 275 274 274 273 272 272 272 271 271 270 270 270 268 268 267 268 267 267 267 266 264 264 264 265 265 265 265 266 267 268 270 272
278 275 273 272 278 278 278 282 280 277 275 272 271 271 272 270 269 269 268 268 267 266 266 265 265 264 264 263 263 262 262 261 260 261 261 262 262 262 263 263 264 268 270 272
Wind_Speed
3 8 12 18 18 18 14 16 21 21 19 19 21 20 21 23 23 27 25 22 14 12 10 7 7 7 4 5 7 10 11 13 11 11 11 12 12 11 12 12 18 18 17 19
4 12 16 7 5 11 16 19 21 19 15 6 18 24 23 23 22 22 22 18 14 13 9 7 7 6 7 7 6 6 8 9 10 9 9 11 9 12 12 11 14 18 20 19
17 11 3 10 14 16 15 14 18 22 19 15 12 13 3 11 7 15 5 12 10 7 6 10 12 12 12 15 14 9 5 7 9 11 9 9 9 8 10 13 12 14 18 18
9 4 6 4 10 10 15 10 15 15 7 9 9 13 10 11 12 11 8 10 12 12 10 9 13 15 14 12 11 12 11 6 6 10 11 14 12 12 10 10 11 12 18 19
3 1 2 6 9 7 5 2 3 5 9 10 6 9 2 3 5 7 13 12 11 10 9 15 14 13 15 15 15 15 15 12 8 7 12 10 13 11 9 9 12 15 14 18
11 1 4 5 3 5 1 4 5 2 4 10 9 10 3 2 3 4 2 8 10 12 17 18 17 16 17 18 18 16 17 15 12 7 10 13 15 13 11 10 10 10 11 12
11 14 4 4 5 4 3 5 8 7 5 10 4 5 6 9 6 5 3 12 19 18 18 18 19 18 20 21 19 16 18 18 16 12 10 10 13 15 15 15 11 12 10 10
8 15 10 8 8 7 10 11 8 7 10 16 10 11 5 7 3 12 19 18 19 21 18 19 20 19 20 18 19 18 18 18 18 17 15 11 10 9 11 12 11 10 11 11
6 12 1 6 5 4 5 9 3 2 3 8 12 19 15 5 10 15 16 17 18 17 18 19 18 17 19 19 19 18 17 16 17 18 16 16 12 12 11 14 13 10 12 10
3 11 10 6 2 4 8 3 3 3 6 10 14 21 14 11 8 8 11 13 14 16 18 17 16 17 16 15 14 16 17 16 16 16 16 15 17 16 14 12 14 14 13 14
5 7 7 3 7 14 5 6 6 4 6 7 13 16 3 10 7 6 8 9 11 12 12 12 13 13 14 14 15 15 16 17 17 18 17 16 16 18 15 13 13 14 14 14
12 6 11 22 16 7 6 11 14 9 9 10 14 19 17 9 10 7 5 4 5 6 8 10 11 12 13 14 14 15 16 16 16 15 14 13 13 15 16 16 16 13 13 13
4 5 7 8 7 2 5 8 14 12 4 16 18 4 3 7 8 9 4 3 5 6 9 10 10 10 11 13 14 14 15 14 15 16 15 14 13 15 15 16 15 14 13 13
2 4 6 10 13 13 10 8 8 5 8 16 17 24 19 19 22 9 5 4 5 7 7 8 10 11 12 12 14 14 15 14 15 15 14 14 15 15 15 14 14 14 13 14
0 10 14 17 11 7 9 8 13 15 14 10 15 22 23 20 12 10 7 9 10 8 8 9 9 9 10 11 12 13 14 15 15 15 13 14 13 13 14 14 14 15 13 12
2 7 5 9 9 14 18 19 23 22 23 25 25 28 4 1 6 11 13 12 11 8 10 12 11 11 10 10 10 12 14 14 13 14 14 14 14 15 14 14 14 14 14 13
3 3 3 10 11 14 14 21 20 22 25 23 21 10 5 1 7 12 15 16 15 13 13 13 13 12 11 11 10 11 11 13 14 14 13 11 12 13 14 15 16 15 15 14
13 10 7 10 3 16 8 7 7 11 5 4 5 6 4 5 10 14 13 16 19 16 15 16 14 14 13 13 12 12 11 12 12 11 11 11 13 15 15 15 15 15 14 14
17 11 6 6 9 13 16 9 5 5 10 10 6 7 5 9 13 18 14 16 19 18 16 14 13 14 15 15 13 12 13 13 13 12 12 11 11 14 15 16 17 16 15 15
7 13 9 4 6 9 5 4 3 4 11 11 9 8 11 11 12 15 18 15 16 17 15 14 15 15 15 13 12 13 14 13 14 13 13 12 11 12 14 16 18 15 16 16
3 3 14 12 11 9 6 3 5 6 6 8 8 11 12 14 14 19 18 18 16 16 17 15 15 14 15 13 12 16 16 16 14 12 12 12 13 12 13 15 15 16 18 17
5 5 5 1 4 12 1 4 7 5 11 17 15 16 15 17 18 18 19 19 18 15 16 17 14 16 16 14 13 16 18 16 15 14 13 14 15 13 13 16 16 16 16 17
8 10 5 10 7 3 5 10 16 19 18 20 18 16 16 18 18 18 16 14 14 15 15 14 14 17 18 17 15 17 18 16 17 16 16 16 16 15 15 16 16 14 15 13
12 12 10 11 18 20 21 19 19 18 16 19 16 9 7 11 12 14 13 13 14 13 14 14 16 18 20 16 17 17 19 18 18 18 18 17 17 17 16 13 13 13 14 13
12 5 9 14 19 19 20 19 19 16 10 3 5 5 7 9 11 13 13 14 15 15 14 14 15 18 22 20 20 18 18 18 19 20 19 19 15 16 16 15 14 13 15 16
13 18 13 16 20 16 19 16 6 6 3 3 7 9 7 9 12 14 14 14 15 15 16 16 18 19 20 20 20 19 18 18 20 20 16 14 14 13 13 14 15 24 31 34
Wind_Direction
155 212 213 233 229 251 287 274 279 276 283 297 289 293 291 284 281 273 276 280 295 290 312 348 326 312 307 281 255 236 226 222 215 214 220 227 232 232 230 218 211 204 202 200
183 235 236 282 295 253 262 271 275 280 277 287 294 300 285 283 269 277 278 294 295 307 4 26 15 30 19 346 315 282 257 247 228 224 219 223 218 230 231 232 227 216 206 200
247 267 283 218 245 264 253 266 278 283 305 283 304 278 271 282 287 269 304 281 321 339 43 62 50 34 24 17 8 353 307 261 240 231 232 232 246 246 230 220 218 219 216 209
256 313 269 269 258 265 280 289 274 282 292 289 3 296 308 293 283 319 320 30 46 59 68 71 44 31 26 20 11 3 9 334 265 237 235 232 234 242 236 236 233 225 220 215
262 189 164 219 238 194 261 8 276 273 267 300 243 268 32 299 290 69 46 72 47 48 47 39 39 34 29 29 23 16 8 3 333 259 244 246 245 254 255 242 234 220 218 223
274 308 255 263 198 207 93 274 252 214 266 258 260 226 133 113 108 48 79 55 59 40 34 33 33 30 35 35 26 19 13 12 357 309 269 258 260 263 258 244 245 233 220 217
293 267 214 205 236 164 224 308 320 277 222 275 97 272 282 295 220 295 38 72 47 41 33 31 29 27 24 27 24 20 19 19 10 352 313 287 279 274 266 262 245 234 221 215
289 295 183 171 215 264 238 233 206 278 275 292 307 257 291 238 336 44 45 42 35 33 31 24 20 19 23 19 19 20 19 14 13 8 352 331 310 288 276 267 262 246 230 222
253 252 218 213 191 225 159 208 206 203 319 275 253 267 287 336 78 45 40 34 30 25 23 17 13 15 11 11 7 10 14 16 14 6 360 358 338 305 293 286 271 260 246 234
313 283 232 260 161 199 216 116 196 119 224 236 267 288 282 251 72 45 27 27 18 13 11 10 8 2 3 2 359 6 11 11 9 7 4 2 352 338 320 302 282 269 263 246
50 241 262 167 204 243 208 221 223 300 207 249 279 278 40 97 88 47 38 27 18 21 18 11 2 356 354 355 358 359 2 2 3 3 3 1 355 353 342 320 299 278 270 256
252 224 255 265 274 272 282 260 244 239 246 231 240 250 255 107 107 54 68 81 40 20 8 360 356 350 353 356 355 356 354 354 356 354 352 352 351 350 347 344 327 303 278 266
21 234 263 258 237 116 223 260 259 274 257 251 258 248 351 276 307 51 41 33 11 346 348 344 350 344 345 346 347 347 346 346 345 342 340 345 350 347 342 340 338 322 295 271
35 260 276 270 295 330 270 251 258 263 256 285 271 288 298 298 313 16 7 348 321 317 331 337 337 336 337 339 341 339 337 341 339 337 336 335 338 339 332 329 329 334 317 287
340 267 281 280 296 290 270 279 270 267 274 263 282 278 274 292 310 332 334 335 316 302 312 322 321 320 320 326 327 329 327 332 337 333 332 332 331 329 328 330 330 328 323 303
37 270 294 276 266 263 283 275 267 270 270 267 266 268 352 68 321 313 320 327 312 289 308 319 316 306 307 308 313 318 317 322 326 321 322 325 332 332 328 328 327 321 318 317
247 244 248 261 291 309 276 255 272 278 276 275 276 304 144 248 320 313 309 315 307 301 313 319 319 307 297 295 294 292 301 309 309 311 311 315 322 323 321 323 322 320 317 314
247 237 246 270 316 256 288 346 275 281 298 164 158 168 193 303 308 302 293 289 295 289 300 308 312 308 295 290 285 288 288 287 283 287 291 302 318 322 322 322 316 311 311 310
230 244 244 249 242 303 301 270 257 272 295 206 206 188 228 275 291 288 286 267 275 278 280 290 298 300 297 293 290 282 282 285 284 286 290 295 308 308 309 312 311 310 306 303
212 226 220 159 244 264 328 135 103 139 274 188 190 221 279 298 293 294 310 298 273 270 267 281 295 300 292 291 297 286 285 281 278 285 292 294 299 296 296 301 304 305 300 293
158 200 224 232 248 267 259 181 148 243 306 143 227 253 270 275 275 287 294 285 275 270 282 291 295 291 287 295 293 287 290 285 290 283 280 284 295 291 290 291 292 296 296 293
228 204 200 161 245 266 194 127 228 285 305 302 300 292 292 290 292 289 290 288 293 292 294 300 298 292 292 298 297 288 283 295 295 286 279 284 288 287 290 290 290 288 286 289
254 220 236 217 230 233 200 259 270 286 291 294 292 287 293 293 289 298 299 302 300 300 298 299 294 295 294 298 299 292 293 301 297 290 283 282 284 282 282 280 282 285 279 274
255 246 246 266 251 259 267 273 274 275 278 284 291 316 319 301 312 305 302 302 303 302 303 307 303 296 294 300 300 295 300 303 297 288 285 287 286 284 279 275 273 270 270 269
242 221 240 253 262 274 268 265 265 279 296 359 336 337 322 316 306 304 304 307 306 307 309 306 302 296 293 300 299 302 304 307 297 291 289 289 285 282 281 272 270 268 267 268
237 246 245 255 265 266 276 275 317 284 250 332 324 320 324 317 309 312 305 308 308 307 309 299 294 293 296 299 300 302 299 293 292 291 291 289 290 286 280 279 278 269 273 273